Regional Weather Roundup
Issued by NWS

Home | Current Version | Previous Version | Text Only | Print | Product List | Glossary On
Versions: 1 2 3 4 5 6 7 8 9 10 11 12 13 14 15 16 17 18 19 20 21 22 23 24 25 26 27 28 29 30 31 32 33 34 35 36 37 38 39 40 41 42 43 44 45 46 47 48 49 50
000
ASUS43 KLMK 050510
RWRKY
KENTUCKY REGIONAL WEATHER ROUNDUP
NATIONAL WEATHER SERVICE LOUISVILLE KY
100 AM EDT SUN JUL 05 2015

NOTE "FAIR" INDICATES FEW OR NO CLOUDS BELOW 12,000 FEET
WITH NO SIGNIFICANT WEATHER AND/OR OBSTRUCTIONS TO VISIBILITY.

KYZ001>023-026-027-061>063-070>075-050600-
WESTERN AND SOUTH CENTRAL KENTUCKY

CITY           SKY/WX    TMP DP  RH WIND       PRES   REMARKS
PADUCAH        CLOUDY    70  68  93 CALM      30.01S FOG
HENDERSON      CLOUDY    70  66  88 CALM      30.01S
OWENSBORO      CLOUDY    74  71  90 CALM      30.02S
HOPKINSVILLE   CLOUDY    71  69  94 SW6       30.01S
BOWLING GREEN  CLOUDY    74  70  87 S7        30.01S FOG
GLASGOW        CLOUDY    72  71  99 SW3       30.03R FOG
$$

KYZ024-025-028>034-038-045-046-053-050600-
NORTH CENTRAL KENTUCKY

CITY           SKY/WX    TMP DP  RH WIND       PRES   REMARKS
LOUISVILLE/SDF CLOUDY    76  67  73 E5        30.03R HAZE
LOUISVILLE/LOU CLOUDY    75  67  76 E3        30.04R HAZE
FORT KNOX      CLOUDY    71  69  95 NE3       30.02S
$$

KYZ035>037-039>044-047>052-055>060-089>105-050600-
NORTHEAST KENTUCKY

CITY           SKY/WX    TMP DP  RH WIND       PRES   REMARKS
LEXINGTON      CLOUDY    71  66  84 E3        30.06S HAZE
COVINGTON      CLOUDY    71  60  68 E5        30.06S
FRANKFORT      CLOUDY    70  66  87 CALM      30.05R FOG
$$

KYZ054-064>069-076>088-106>120-050600-
SOUTHEAST KENTUCKY

CITY           SKY/WX    TMP DP  RH WIND       PRES   REMARKS
JACKSON        CLOUDY    70  67  90 CALM      30.08S
LONDON         CLOUDY    71  66  84 E3        30.07R
SOMERSET       CLOUDY    68  68 100 CALM      30.07R
MIDDLESBORO    CLOUDY    69  68  97 CALM      30.08S
MONTICELLO     CLOUDY    70  70 100 CALM      30.07S FOG
$$




USA.gov is the U.S. government's official web portal to all federal, state and local government web resources and services.